Miscellaneous Local Product
Issued by NWS Hastings, NE

Home | Current Version | Previous Version | Graphics & Text | Print | Product List | Glossary On
Versions: 1 2 3 4 5 6 7 8 9 10 11 12 13 14 15 16 17 18 19 20 21 22 23 24 25 26 27 28 29 30 31 32 33 34 35 36 37 38 39 40 41 42 43 44 45 46 47 48 49 50
000
AXUS43 KGID 211802
MISGRI

GID CWA HOURLY WEATHER ROUNDUP
NATIONAL WEATHER SERVICE HASTINGS NE
100 PM CDT MON APR 21 2014

NOTE: "FAIR" INDICATES FEW OR NO CLOUDS BELOW 12,000 FEET WITH NO
SIGNIFICANT WEATHER AND/OR OBSTRUCTIONS TO VISIBILITY.

...SOUTH CENTRAL NEBRASKA...

CITY           SKY/WX    TMP DP  RH WIND       PRES   REMARKS
GRAND ISLAND   MOSUNNY   70  28  21 N24G31    30.14F
HASTINGS       SUNNY     69  31  24 N23G30    30.13F
KEARNEY        MOSUNNY   66  34  30 NE20G28   30.18R
ORD            MOSUNNY   69  29  22 N21G29    30.15S
YORK           SUNNY     68  32  26 N25G31    30.11R
AURORA         SUNNY     70  33  25 N22G31    30.13S
LEXINGTON      SUNNY     68  29  23 NE22G29   30.18F
HOLDREGE       MOSUNNY   67  30  25 N22G30    30.16S
HEBRON         SUNNY     71  32  24 N21G32    30.08S

...NEBRASKA PANHANDLE...

CITY           SKY/WX    TMP DP  RH WIND       PRES   REMARKS
CHADRON        PTSUNNY   62  23  22 CALM      30.24F
ALLIANCE       MOSUNNY   63  21  20 NE5       30.25F
SCOTTSBLUFF    SUNNY     63  26  24 S6        30.25F
SIDNEY         SUNNY     64  22  20 MISG      30.27F

...WESTERN AND NORTH CENTRAL NEBRASKA...

CITY           SKY/WX    TMP DP  RH WIND       PRES   REMARKS
VALENTINE      SUNNY     65  22  19 N16G29    30.21F
AINSWORTH      SUNNY     66  23  20 N15G30    30.20F
ONEILL         SUNNY     68  21  16 N20       30.17S
BROKEN BOW     SUNNY     66  26  22 N22G31    30.17S
IMPERIAL       MOSUNNY   70  21  15 NE13G20   30.23F
NORTH PLATTE   SUNNY     68  23  18 NE14G25   30.20S
MCCOOK         SUNNY     70  28  21 NE16G22   30.20F

...EASTERN NEBRASKA...

CITY           SKY/WX    TMP DP  RH WIND       PRES   REMARKS
NORFOLK        MOSUNNY   68  25  19 N25G35    30.10F
SO SIOUX CITY  MOSUNNY   73  26  17 NW26G38   30.04F
TEKAMAH        MOSUNNY   74  29  19 N25G31    30.04R
COLUMBUS       MOSUNNY   70  32  24 N23G30    30.11F
ALBION         MOSUNNY   69  24  18 N22G28    30.13S
OMAHA EPPLEY   PTSUNNY   71  43  36 N25G32    30.02R
OFFUTT AFB     MOSUNNY   72  48  42 N15G29    30.02R
MILLARD        MOSUNNY   69  37  30 N15G24    30.03R
LINCOLN        MOSUNNY   73  34  23 N25G31    30.06R
NEBRASKA CITY  CLOUDY    71  56  59 NW13      30.01S
BEATRICE       MOSUNNY   73  40  29 N21G29    30.04S
FALLS CITY     CLOUDY    70  58  65 NW8       29.98F

...NORTHERN KANSAS...

CITY           SKY/WX    TMP DP  RH WIND       PRES   REMARKS
GOODLAND       SUNNY     66  27  23 NE14G20   30.23F
HILL CITY      SUNNY     69  35  28 NE21G29   30.17F
PHILLIPSBURG   SUNNY     72  28  20 N17G23    30.15S
SMITH CENTER   SUNNY     70  36  28 N18G25    30.13R
BELOIT         SUNNY     72  37  28 N26G35    30.06F
HAYS           SUNNY     70  45  40 N22       30.13S
RUSSELL        SUNNY     73  40  30 N18G29    30.09S
CONCORDIA      MOSUNNY   75  42  30 N20G28    30.06S
SALINA         MOSUNNY   75  52  44 N12       30.04F
TOPEKA         PTSUNNY   73  60  63 N10       29.99F



USA.gov is the U.S. government's official web portal to all federal, state and local government web resources and services.